Simultaneous Nadir Overpasses (SNOs) Predictions

Prediction of SNOs between AQUA and METOP-B Satellite Orbit:

Table of predicted SNOs for the next 14.0 days since TLE Epoch: 9/18/2015
Index Date (AQUA) Time (AQUA) Lat,Lon (AQUA) SZA (AQUA ) Date (METOP-B) Time (METOP-B) Lat,Lon (METOP-B) SZA (METOP-B ) Distance(km) Time Diff (sec)
1 09/19/2015 10:21:45 -73.71,-160.93 107.87 09/19/2015 10:20:41 -73.72,-160.89 107.85 1.48 64
2 09/19/2015 11:11:13 73.75, 6.63 72.19 09/19/2015 11:11:20 73.75, 6.53 72.20 3.01 7
3 09/19/2015 12:00:45 -74.07, 173.55 107.46 09/19/2015 12:01:56 -74.04, 174.55 107.52 30.73 71
4 09/22/2015 05:55:58 -73.69, -94.46 106.80 09/22/2015 05:55:02 -73.72, -94.48 106.77 2.78 56
5 09/22/2015 06:45:27 73.78, 72.98 73.32 09/22/2015 06:45:40 73.80, 73.06 73.34 3.23 13
6 09/22/2015 07:35:04 -74.36,-120.69 106.07 09/22/2015 07:36:11 -74.34,-118.30 106.14 71.86 67
7 09/25/2015 01:30:12 -73.69, -28.02 105.70 09/25/2015 01:29:24 -73.72, -28.08 105.68 3.19 48
8 09/25/2015 02:19:41 73.79, 139.42 74.41 09/25/2015 02:20:02 73.80, 139.46 74.43 2.17 21
9 09/27/2015 21:04:26 -73.71, 38.39 104.60 09/27/2015 21:03:46 -73.71, 38.32 104.59 2.36 40
10 09/27/2015 21:53:55 73.80,-154.18 75.52 09/27/2015 21:54:24 73.80,-154.15 75.51 1.14 29
11 09/30/2015 16:38:39 -73.74, 104.77 103.48 09/30/2015 16:38:06 -73.75, 104.82 103.46 2.48 33
12 09/30/2015 17:28:07 73.78, -87.69 76.59 09/30/2015 17:28:45 73.79, -87.76 76.60 2.34 38




NCC Satellite Simultaneous Nadir Overpasses (SNOs) Prediction Service
